Baton Rouge, LA

9:03 PM CST on December 15, 2019 (GMT -0600)
Baton Rouge Metro-Ryan

Weather History for KBTR - October, 2019

Change the Weather History Date:

Thursday, October 24, 2019

  Actual Average Record
Temperature  
Mean Temperature 61 °F 67 °F  
Max Temperature 72 °F 79 °F 91 °F (1894)
Min Temperature 49 °F 55 °F 33 °F (1917)
Degree Days  
Heating Degree Days 4 2  
Month to date heating degree days 18 25  
Since 1 July heating degree days 18 27  
Cooling Degree Days 0 4  
Month to date cooling degree days 216 153  
Year to date cooling degree days 3099 2724  
Growing Degree Days 10 (Base 50)    
Moisture  
Dew Point 50 °F    
Average Humidity 68    
Maximum Humidity 89    
Minimum Humidity 47    
Precipitation  
Precipitation T in 0.16 in 2.12 in (2015)
Month to date precipitation 5.06 3.63  
Year to date precipitation 56.81 49.88  
Snow  
Snow 0.00 in - - ()
Month to date snowfall 0.0  
Since 1 July snowfall 0.0  
Since 1 September snowfall 0.0  
Snow Depth 0.00 in    
Sea Level Pressure  
Sea Level Pressure 30.09 in    
Wind  
Wind Speed 7 mph (ENE)    
Max Wind Speed 13 mph    
Max Gust Speed 16 mph    
Visibility 10 miles    
Events Rain    
T = Trace of Precipitation, MM = Missing Value Source: NWS Daily Summary

Daily Weather History Graph

Daily Weather History Graph

Search for Another Location

Airport or City:

Astronomy

Oct. 24, 2019 Rise Set
Actual Time 7:12 AM CDT 6:24 PM CDT
Civil Twilight 6:48 AM CDT 6:48 PM CDT
Nautical Twilight 6:20 AM CDT 7:16 PM CDT
Astronomical Twilight 5:52 AM CDT 7:44 PM CDT
Moon 3:08 AM CDT (10/24) 4:29 PM CDT (10/24)
Length of Visible Light 12h 00m
Length of Day
11h 11m
Waning Crescent, 16% of the Moon is Illuminated
Oct 24
Waning Crescent
Oct 27
New
Nov 4
First Quarter
Nov 12
Full
Nov 19
Last Quarter

Hourly Weather History & Observations

Time (CDT) Temp. Dew Point Humidity Pressure Visibility Wind Dir Wind Speed Gust Speed Precip Events Conditions
12:53 AM 51.1 °F 48.0 °F 89% 30.11 in 10.0 mi ENE 3.5 mph - N/A   Clear
1:53 AM 50.0 °F 46.9 °F 89% 30.12 in 10.0 mi Calm Calm - N/A   Clear
2:53 AM 50.0 °F 46.9 °F 89% 30.12 in 10.0 mi Calm Calm - N/A   Clear
3:53 AM 50.0 °F 46.9 °F 89% 30.10 in 10.0 mi ENE 3.5 mph - N/A   Clear
4:53 AM 52.0 °F 46.9 °F 83% 30.10 in 10.0 mi ENE 3.5 mph - N/A   Clear
5:53 AM 51.1 °F 46.9 °F 86% 30.10 in 10.0 mi ENE 4.6 mph - N/A   Clear
6:53 AM 50.0 °F 46.0 °F 86% 30.10 in 10.0 mi NE 6.9 mph - N/A   Clear
7:53 AM 51.1 °F 46.9 °F 86% 30.12 in 10.0 mi NE 5.8 mph - N/A   Clear
8:53 AM 57.0 °F 48.9 °F 74% 30.14 in 10.0 mi ENE 8.1 mph - N/A   Clear
9:53 AM 63.0 °F 48.9 °F 60% 30.14 in 10.0 mi ENE 8.1 mph - N/A   Clear
10:53 AM 66.0 °F 48.0 °F 52% 30.15 in 10.0 mi ENE 8.1 mph - N/A   Clear
11:53 AM 68.0 °F 48.0 °F 49% 30.13 in 10.0 mi ENE 11.5 mph - N/A   Clear
12:53 PM 69.1 °F 48.9 °F 49% 30.11 in 10.0 mi East 6.9 mph - N/A   Clear
1:53 PM 70.0 °F 51.1 °F 51% 30.09 in 10.0 mi East 8.1 mph - N/A   Clear
2:53 PM 69.1 °F 51.1 °F 53% 30.06 in 10.0 mi East 8.1 mph - N/A   Clear
3:53 PM 68.0 °F 51.1 °F 55% 30.05 in 10.0 mi ENE 9.2 mph - N/A   Clear
5:53 PM 64.0 °F 52.0 °F 65% 30.03 in 10.0 mi ENE 8.1 mph - N/A   Clear
6:53 PM 63.0 °F 53.1 °F 70% 30.05 in 10.0 mi East 5.8 mph - N/A   Clear
7:53 PM 63.0 °F 52.0 °F 67% 30.05 in 10.0 mi ENE 9.2 mph - N/A   Clear
8:53 PM 63.0 °F 52.0 °F 67% 30.06 in 10.0 mi NE 5.8 mph - N/A   Clear
9:53 PM 62.1 °F 52.0 °F 70% 30.06 in 10.0 mi North 5.8 mph - N/A   Scattered Clouds
10:33 PM 62.1 °F 53.1 °F 72% 30.06 in 10.0 mi ENE 8.1 mph - 0.00 in Rain Light Rain
10:53 PM 61.0 °F 54.0 °F 78% 30.05 in 10.0 mi ENE 9.2 mph - 0.00 in Rain Light Rain
11:53 PM 61.0 °F 55.0 °F 81% 30.02 in 10.0 mi NE 9.2 mph - 0.00 in   Overcast